Location: Chochol
(49.7771°N, 14.9780°E)
Time: 05:57:49
(UTC+00:00)

Cosmos 1980 Rocket - Pass Details

Date: 09 April 2020
Orbit: 828 x 850 km, 71.0° (Epoch: 29 May)

Event Time Altitude Azimuth Distance (km) Brightness Sun altitude
Rises 18:08:37 0° 331° (NNW) 3,385 6.1 -4.5°
Reaches altitude 10° 18:12:59 10° 3° (N) 2,453 4.8 -5.2°
Maximum altitude 18:14:58 12° 24° (NNE) 2,330 4.5 -5.5°
Drops below altitude 10° 18:16:56 10° 45° (NE) 2,455 4.4 -5.8°
Enters shadow 18:20:53 - 74° (ENE) 3,279 4.8 -6.4°
